Weather History for KBLV - April, 2014

Change the Weather History Date:

Sunday, April 13, 2014

  Actual Average Record
Temperature  
Mean Temperature 67 °F -  
Max Temperature 75 °F 68 °F 86 °F (1972)
Min Temperature 58 °F 45 °F 25 °F (1989)
Cooling Degree Days 2    
Growing Degree Days 17 (Base 50)    
Moisture  
Dew Point 62 °F    
Average Humidity 85    
Maximum Humidity 100    
Minimum Humidity 60    
Precipitation  
Precipitation 0.60 in - - ()
Sea Level Pressure  
Sea Level Pressure 29.65 in    
Wind  
Wind Speed 16 mph (South)    
Max Wind Speed 32 mph    
Max Gust Speed 45 mph    
Visibility 8 miles    
Events Rain    
Averages and records for this station are not official NWS values.
T = Trace of Precipitation, MM = Missing Value Source: NWS Daily Summary

Daily Weather History Graph

Daily Weather History Graph

Search for Another Location

Airport or City:

Trip Planner

Search our weather history database for the weather conditions in past years. The results will help you decide how hot, cold, wet, or windy it might be!

Date:

Astronomy

Apr. 13, 2014 Rise Set
Actual Time 6:26 AM CDT 7:34 PM CDT
Civil Twilight 5:58 AM CDT 8:01 PM CDT
Nautical Twilight 5:26 AM CDT 8:34 PM CDT
Astronomical Twilight 4:52 AM CDT 9:08 PM CDT
Moon 6:12 PM CDT (4/13) 5:23 AM CDT (4/13)
Length of Visible Light 14h 02m
Length of Day
13h 07m
Waxing Gibbous, 97% of the Moon is Illuminated
Apr 13
Waxing Gibbous
Apr 15
Full
Apr 22
Last Quarter
Apr 29
New
May 6
First Quarter

Hourly Weather History & Observations

Time (CDT) Temp. Dew Point Humidity Pressure Visibility Wind Dir Wind Speed Gust Speed Precip Events Conditions
12:58 AM 67.8 °F 55.6 °F 65% 29.75 in 10.0 mi South 15.0 mph 23.0 mph N/A   Clear
1:58 AM 67.8 °F 56.3 °F 67% 29.76 in 10.0 mi South 15.0 mph - N/A   Clear
2:58 AM 67.1 °F 56.7 °F 69% 29.80 in 10.0 mi SW 6.9 mph - N/A   Partly Cloudy
3:58 AM 63.5 °F 57.0 °F 79% 29.78 in 10.0 mi South 8.1 mph - N/A   Partly Cloudy
4:58 AM 65.7 °F 57.4 °F 75% 29.77 in 10.0 mi South 12.7 mph - N/A   Partly Cloudy
5:58 AM 65.1 °F 57.4 °F 76% 29.77 in 10.0 mi South 10.4 mph - N/A   Partly Cloudy
6:58 AM 65.1 °F 57.4 °F 76% 29.78 in 10.0 mi SSE 12.7 mph - N/A   Scattered Clouds
7:58 AM 65.1 °F 57.2 °F 75% 29.78 in 10.0 mi South 15.0 mph - N/A   Partly Cloudy
8:58 AM 65.1 °F 57.4 °F 76% 29.76 in 10.0 mi South 15.0 mph - N/A   Clear
9:58 AM 65.3 °F 58.6 °F 79% 29.78 in 10.0 mi South 12.7 mph - N/A   Partly Cloudy
10:58 AM 69.6 °F 59.4 °F 70% 29.77 in 10.0 mi South 12.7 mph - N/A   Mostly Cloudy
11:58 AM 73.4 °F 59.5 °F 62% 29.74 in 10.0 mi South 21.9 mph 29.9 mph N/A   Scattered Clouds
12:58 PM 73.8 °F 59.7 °F 61% 29.72 in 10.0 mi South 20.7 mph 29.9 mph N/A   Mostly Cloudy
1:58 PM 74.7 °F 59.7 °F 60% 29.71 in 10.0 mi South 21.9 mph 27.6 mph N/A   Scattered Clouds
2:30 PM 73.4 °F 59.0 °F 61% 29.72 in 9.0 mi South 24.2 mph 29.9 mph N/A Rain Light Rain
2:42 PM 69.8 °F 60.8 °F 73% 29.73 in 10.0 mi SSW 15.0 mph 25.3 mph N/A   Scattered Clouds
2:46 PM 69.8 °F 60.8 °F 73% 29.73 in 9.0 mi SSW 15.0 mph 23.0 mph N/A Rain Light Rain
2:56 PM 68.0 °F 62.6 °F 83% 29.70 in 5.0 mi SSW 8.1 mph - N/A Rain Light Rain
2:58 PM 68.7 °F 63.0 °F 82% 29.70 in 6.0 mi SSW 6.9 mph - 0.02 in Rain Light Rain
3:03 PM 68.0 °F 64.4 °F 88% 29.70 in 10.0 mi South 6.9 mph - N/A Rain Light Rain
3:04 PM 68.0 °F 64.4 °F 88% 29.69 in 10.0 mi South 6.9 mph - N/A   Mostly Cloudy
3:58 PM 70.7 °F 64.0 °F 79% 29.66 in 10.0 mi SSE 13.8 mph - 0.01 in   Partly Cloudy
4:58 PM 71.2 °F 61.3 °F 71% 29.63 in 10.0 mi SSE 23.0 mph 32.2 mph N/A   Partly Cloudy
5:58 PM 71.1 °F 60.1 °F 68% 29.60 in 10.0 mi SSE 20.7 mph 32.2 mph N/A   Clear
6:58 PM 70.2 °F 61.3 °F 74% 29.60 in 10.0 mi South 21.9 mph 32.2 mph N/A   Clear
7:26 PM 69.8 °F 62.6 °F 78% 29.59 in 10.0 mi South 23.0 mph 28.8 mph N/A   Light Drizzle
7:38 PM 68.0 °F 64.4 °F 88% 29.59 in 9.0 mi South 20.7 mph 27.6 mph N/A   Mostly Cloudy
7:44 PM 68.0 °F 64.4 °F 88% 29.59 in 10.0 mi South 17.3 mph 27.6 mph N/A Rain Light Rain
7:49 PM 66.2 °F 64.4 °F 94% 29.58 in 9.0 mi SSE 16.1 mph 25.3 mph N/A Rain Light Rain
7:58 PM 66.7 °F 64.6 °F 93% 29.58 in 10.0 mi South 20.7 mph 28.8 mph 0.01 in Rain Light Rain
8:13 PM 66.2 °F 66.2 °F 100% 29.59 in 2.5 mi South 18.4 mph 25.3 mph N/A Rain Heavy Rain
8:18 PM 66.2 °F 64.4 °F 94% 29.60 in 1.8 mi South 19.6 mph 26.5 mph N/A Rain Heavy Rain
8:23 PM 64.4 °F 64.4 °F 100% 29.60 in 2.0 mi South 23.0 mph 33.4 mph N/A Rain Heavy Rain
8:33 PM 64.4 °F 64.4 °F 100% 29.60 in 2.5 mi South 18.4 mph 33.4 mph N/A Rain Rain
8:38 PM 64.4 °F 64.4 °F 100% 29.60 in 4.0 mi South 21.9 mph 26.5 mph N/A Rain Rain
8:43 PM 64.4 °F 64.4 °F 100% 29.60 in 3.0 mi South 25.3 mph 33.4 mph N/A Rain Light Rain
8:58 PM 64.2 °F 64.0 °F 99% 29.61 in 4.0 mi South 28.8 mph 43.7 mph 0.34 in Rain Light Rain
9:03 PM 62.6 °F 62.6 °F 100% 29.60 in 4.0 mi South 32.2 mph 44.9 mph N/A Rain Light Rain
9:18 PM 62.6 °F 62.6 °F 100% 29.59 in 3.0 mi South 21.9 mph 35.7 mph N/A Rain Light Rain
9:33 PM 62.6 °F 62.6 °F 100% 29.54 in 5.0 mi SE 26.5 mph 42.6 mph N/A Rain Light Rain
9:43 PM 64.4 °F 64.4 °F 100% 29.54 in 10.0 mi SSE 26.5 mph 36.8 mph N/A Rain Light Rain
9:58 PM 64.0 °F 64.0 °F 100% 29.52 in 10.0 mi SE 20.7 mph 33.4 mph 0.12 in Rain Light Rain
10:05 PM 64.4 °F 64.4 °F 100% 29.53 in 10.0 mi SSE 18.4 mph 26.5 mph N/A   Scattered Clouds
10:11 PM 64.4 °F 64.4 °F 100% 29.55 in 10.0 mi South 17.3 mph 26.5 mph N/A Rain Light Rain
10:34 PM 64.4 °F 64.4 °F 100% 29.54 in 10.0 mi South 16.1 mph - N/A   Partly Cloudy
10:58 PM 64.0 °F 63.7 °F 99% 29.55 in 10.0 mi South 18.4 mph - 0.00 in   Mostly Cloudy
11:04 PM 64.4 °F 64.4 °F 100% 29.56 in 10.0 mi SW 16.1 mph - N/A   Mostly Cloudy
11:07 PM 64.4 °F 64.4 °F 100% 29.58 in 8.0 mi WSW 20.7 mph 26.5 mph N/A Rain Light Rain
11:12 PM 62.6 °F 62.6 °F 100% 29.57 in 3.0 mi WSW 16.1 mph 26.5 mph N/A Rain Heavy Rain
11:22 PM 60.8 °F 59.0 °F 94% 29.57 in 10.0 mi SSW 10.4 mph - N/A Rain Light Rain
11:58 PM 58.6 °F 58.3 °F 99% 29.55 in 10.0 mi South 9.2 mph - 0.10 in Rain Light Rain